Location: Passau
(48.5830°N, 13.4830°E)
Time: 23:11:59
(UTC+02:00)

N. Korean satellite - Pass Details

Date: 30 September 2021
Orbit: 450 x 495 km, 97.3° (Epoch: 25 October)

Event Time Altitude Azimuth Distance (km) Brightness Sun altitude
Rises 06:17:30 0° 15° (NNE) 2,543 10.5 -8.5°
Reaches altitude 10° 06:19:35 10° 19° (NNE) 1,666 9.6 -8.2°
Maximum altitude 06:23:08 61° 101° (E) 555 7.2 -7.6°
Drops below altitude 10° 06:26:42 10° 182° (S) 1,674 9.2 -7.0°
Sets 06:28:47 0° 186° (S) 2,556 10.1 -6.7°
